Location: Ch�tillon
(48.8024°N, 2.2935°E)
Time: 17:23:53
(UTC+00:00)

Cosmos 1697 Rocket - Pass Details

Date: 25 May 2022
Orbit: 833 x 843 km, 71.0° (Epoch: 29 June)

Event Time Altitude Azimuth Distance (km) Brightness Sun altitude
Rises 20:56:44 0° 217° (SW) 3,388 5.7 -10.4°
Reaches altitude 10° 20:59:11 10° 220° (SW) 2,458 5.0 -10.7°
Maximum altitude 21:04:47 64° 302° (WNW) 936 3.2 -11.2°
Drops below altitude 10° 21:10:26 10° 24° (NNE) 2,471 5.5 -11.8°
Sets 21:12:55 0° 27° (NNE) 3,409 6.2 -12.1°
